Temperature
21 21 21 22 18 15 13 13 14 13 11 11 11 10 9 9 9 8 9 9 9 10 10 10 11 11 12 12 12 13 13 13 13 13 13 13 13 13 13 14 14 14 14 14 14 14 15 15 15
21 22 21 20 15 13 13 12 13 13 11 11 10 10 10 10 9 9 9 9 9 10 10 10 11 11 11 11 12 12 12 12 12 13 13 13 13 13 13 13 13 13 14 14 14 14 14 14 15
21 21 19 13 11 11 13 13 12 12 12 11 9 9 9 10 9 8 8 9 9 10 10 10 11 11 11 11 11 11 12 12 12 12 12 12 12 12 12 12 13 13 13 13 13 14 14 14 14
21 21 17 13 11 11 11 11 13 13 12 10 10 9 9 9 8 8 8 9 9 10 10 10 10 11 11 11 11 11 11 11 11 11 12 12 12 12 12 12 12 12 12 13 13 13 13 13 14
22 19 13 11 11 11 10 11 11 11 10 10 9 9 8 8 8 8 9 9 9 9 10 10 10 10 10 10 10 10 10 10 10 11 11 11 11 11 11 11 12 12 12 12 12 12 13 13 13
22 16 12 11 12 11 11 11 11 10 10 10 9 9 8 7 8 8 8 9 9 9 9 10 10 10 10 10 10 10 9 9 9 9 10 10 10 10 10 11 11 11 11 11 11 12 12 12 13
20 13 12 12 12 12 12 11 10 9 9 9 10 9 8 7 7 8 8 8 8 9 9 9 9 9 9 9 9 9 8 8 8 8 8 8 9 9 9 9 10 10 10 10 11 11 11 12 12
21 14 13 13 12 11 11 10 10 9 9 9 9 8 7 6 7 8 8 8 8 8 8 8 8 8 8 8 7 7 7 6 6 6 6 6 6 7 7 7 8 8 8 9 10 10 11 11 12
20 12 12 13 12 11 11 10 9 9 8 8 7 7 6 7 7 8 8 8 8 7 7 7 7 7 6 6 6 6 5 5 4 4 4 4 5 5 5 5 6 6 7 7 8 9 10 10 11
16 11 12 12 12 11 11 10 9 8 7 7 6 7 7 8 8 8 7 7 6 6 6 6 5 5 5 5 4 4 4 3 3 2 2 2 3 3 3 4 4 4 5 6 6 7 8 9 10
14 11 12 12 12 11 10 9 9 8 7 7 6 7 7 7 7 7 6 6 5 5 4 4 4 4 3 3 3 2 2 2 1 1 0 1 1 1 2 2 3 3 3 4 5 6 6 7 8
12 12 12 12 12 11 10 9 8 8 7 7 7 7 7 7 6 6 5 5 5 4 3 3 2 2 2 2 2 1 1 0 -0 -1 -1 -1 -1 -0 0 1 1 1 1 2 3 3 4 5 6
10 11 11 12 12 10 10 8 8 7 7 7 7 7 6 6 6 5 5 5 4 3 2 2 2 1 1 1 1 0 0 -0 -1 -2 -2 -2 -2 -2 -2 -1 -1 -1 -0 0 1 2 2 3 4
11 10 10 11 10 9 8 8 8 7 7 7 7 6 6 6 5 5 5 4 4 3 2 1 1 1 1 1 0 -0 -1 -1 -2 -2 -3 -3 -3 -3 -3 -3 -3 -2 -2 -2 -1 -1 0 1 2
12 10 10 10 10 9 9 8 8 8 8 7 6 6 5 5 5 4 4 4 3 3 2 1 1 0 0 -0 -1 -1 -2 -2 -3 -3 -4 -4 -4 -4 -5 -4 -4 -4 -4 -3 -3 -2 -2 -0 1
12 10 10 10 10 10 9 7 8 8 8 7 6 5 5 4 4 4 4 3 3 2 2 1 0 -0 -0 -1 -1 -2 -2 -3 -3 -4 -4 -4 -5 -5 -5 -5 -6 -5 -5 -5 -4 -4 -4 -3 -1
13 12 12 11 10 10 9 7 8 8 7 6 6 5 4 4 4 3 3 3 3 2 1 0 -0 -1 -1 -1 -2 -2 -2 -3 -4 -4 -5 -5 -5 -6 -6 -6 -6 -6 -6 -6 -6 -6 -5 -5 -4
15 14 12 11 11 10 8 6 7 8 8 6 6 5 4 4 3 3 3 3 2 1 1 -0 -1 -1 -2 -2 -2 -2 -3 -3 -4 -5 -5 -6 -6 -6 -7 -7 -7 -7 -6 -6 -6 -6 -6 -6 -5
15 15 12 11 12 10 8 6 6 7 7 6 5 5 4 4 3 3 3 2 2 1 -0 -1 -2 -3 -3 -3 -3 -3 -4 -4 -5 -5 -6 -6 -6 -7 -7 -8 -7 -7 -7 -7 -7 -7 -7 -6 -6
16 14 12 11 12 10 7 7 6 7 7 6 6 5 4 4 3 3 2 2 1 -0 -2 -2 -3 -3 -4 -4 -4 -5 -5 -5 -6 -6 -6 -7 -7 -8 -8 -8 -8 -8 -8 -8 -8 -8 -8 -7 -7
14 14 13 12 11 9 8 7 6 6 6 6 5 5 4 4 3 2 2 1 -0 -1 -2 -3 -3 -4 -4 -5 -5 -5 -5 -5 -5 -6 -7 -7 -8 -8 -9 -9 -9 -9 -9 -9 -9 -9 -9 -8 -7
14 14 13 12 10 9 9 7 5 5 5 5 4 4 4 3 2 2 1 -0 -1 -2 -3 -3 -4 -4 -5 -5 -6 -6 -6 -7 -7 -8 -8 -8 -8 -9 -9 -9 -9 -9 -9 -9 -9 -9 -9 -9 -8
14 13 13 12 11 10 8 8 6 4 4 4 4 3 3 2 2 1 0 -1 -1 -2 -3 -4 -4 -4 -5 -6 -6 -7 -7 -8 -8 -8 -8 -9 -9 -9 -10 -10 -10 -10 -10 -10 -10 -10 -9 -9 -9
13 12 12 9 9 10 9 7 7 3 4 3 3 3 2 2 1 1 -0 -1 -2 -3 -3 -4 -4 -5 -6 -6 -7 -7 -8 -8 -8 -9 -9 -10 -10 -10 -10 -11 -11 -11 -11 -10 -10 -10 -10 -9 -9
11 11 10 11 10 10 9 7 6 4 4 4 3 2 2 1 1 0 -0 -2 -3 -3 -4 -4 -5 -5 -6 -7 -7 -8 -8 -9 -9 -10 -10 -11 -11 -11 -11 -11 -11 -11 -11 -11 -11 -11 -10 -10 -9
12 12 11 11 10 9 9 8 4 4 5 4 3 2 2 1 0 -0 -2 -3 -3 -4 -4 -5 -5 -6 -6 -7 -7 -8 -9 -9 -10 -10 -11 -11 -12 -12 -12 -12 -12 -12 -12 -12 -11 -11 -11 -10 -10
13 10 11 9 9 8 8 6 4 4 3 3 2 2 1 0 -0 -1 -2 -3 -4 -4 -5 -5 -6 -6 -7 -7 -8 -8 -9 -10 -10 -11 -11 -11 -12 -12 -12 -12 -12 -12 -12 -12 -12 -11 -11 -10 -10
12 10 8 9 10 9 8 7 5 3 3 2 1 1 0 -0 -1 -2 -3 -4 -4 -5 -5 -6 -6 -7 -7 -8 -8 -9 -10 -10 -11 -11 -12 -12 -12 -12 -13 -13 -13 -13 -13 -12 -12 -12 -11 -11 -10
12 12 10 8 7 8 7 8 5 3 2 1 1 0 -0 -1 -2 -3 -4 -4 -4 -5 -5 -6 -6 -7 -7 -8 -9 -10 -10 -11 -11 -12 -12 -13 -13 -13 -13 -13 -13 -13 -13 -13 -12 -12 -11 -11 -10
11 11 9 9 9 6 5 6 4 3 3 2 1 -0 -1 -2 -3 -3 -4 -4 -4 -5 -5 -6 -7 -7 -8 -9 -9 -10 -10 -11 -12 -12 -12 -13 -13 -13 -13 -13 -13 -13 -13 -13 -12 -12 -11 -11 -10
Wind_Speed
14 10 4 5 8 10 8 8 5 7 6 6 10 10 11 10 9 8 3 10 15 19 25 27 30 30 30 30 30 30 30 30 30 30 30 29 28 27 26 25 24 22 21 19 18 16 15 14 14
8 5 7 7 8 8 6 7 11 8 10 8 8 8 8 9 5 6 6 12 21 24 27 28 30 30 30 30 30 30 31 30 31 31 31 30 29 29 28 27 27 26 24 23 21 19 17 16 15
3 6 7 7 7 5 4 4 11 14 11 6 6 7 6 6 6 5 7 17 24 26 28 29 31 31 31 31 31 31 31 31 31 31 31 31 30 30 29 29 28 27 26 25 24 22 20 18 17
5 7 8 10 13 6 5 5 3 5 9 9 6 7 6 8 5 6 13 23 22 24 28 29 32 32 31 31 31 31 30 30 30 31 31 31 31 30 29 30 29 29 28 27 26 24 23 21 19
5 7 9 7 7 4 5 9 10 8 6 8 8 9 6 7 8 11 17 22 19 21 26 29 32 33 32 31 32 31 30 30 30 30 30 30 31 31 30 30 30 29 29 28 28 26 25 24 22
6 6 7 6 6 4 4 7 5 11 7 5 8 8 6 7 11 12 16 19 21 22 25 28 32 33 32 31 32 31 30 31 30 30 30 30 31 31 30 31 31 30 29 29 28 28 28 26 24
6 6 7 8 7 4 3 5 6 6 7 6 4 7 6 8 8 10 15 18 20 24 26 28 30 31 32 31 31 31 30 30 30 30 30 30 30 30 30 31 31 31 30 29 29 29 29 28 26
6 7 6 5 6 4 2 4 5 6 5 4 5 7 7 4 7 9 12 13 17 22 25 27 30 31 30 28 30 30 29 30 30 29 29 29 28 28 29 30 31 31 31 30 30 29 29 28 26
6 7 5 3 7 7 6 5 5 7 10 10 9 10 8 6 10 13 12 13 14 18 22 26 28 29 29 27 27 28 27 29 28 28 29 27 24 25 26 29 30 31 30 30 30 31 29 28 25
7 6 3 1 7 9 7 7 7 6 9 9 9 10 10 12 13 14 13 14 15 15 15 23 25 28 28 26 25 25 24 26 26 26 26 24 24 24 25 27 29 30 29 29 30 30 27 25 22
7 7 6 7 10 9 7 5 5 9 6 6 9 8 10 12 11 11 10 9 9 9 13 20 24 27 27 24 23 22 22 23 24 25 25 24 22 23 23 22 23 24 25 24 26 24 22 22 21
8 7 7 7 6 6 6 6 6 5 7 10 11 10 10 10 9 9 9 8 8 11 13 17 22 24 24 23 22 21 21 21 21 23 25 24 20 21 21 20 21 20 20 22 21 20 21 22 22
7 5 5 9 13 9 10 8 8 8 10 11 11 11 10 9 8 7 8 8 10 11 11 12 18 22 22 21 21 21 22 22 22 22 23 24 21 19 20 19 20 20 21 20 19 19 19 18 19
8 10 10 9 10 5 11 8 7 7 9 10 11 9 9 8 8 7 8 8 8 8 9 12 16 22 22 21 21 21 22 23 22 22 24 25 23 21 19 18 18 19 21 21 19 18 16 14 15
8 8 6 4 5 6 8 5 4 9 10 10 9 9 8 7 7 8 7 7 7 7 8 12 17 20 20 20 21 21 22 22 21 22 24 25 25 23 21 17 15 19 22 21 19 17 15 12 13
6 6 4 5 7 7 6 4 6 9 10 9 8 8 8 6 6 7 7 7 7 7 8 10 17 18 18 19 20 20 21 21 20 22 23 25 25 25 22 16 15 20 20 19 14 10 13 12 13
2 2 4 5 8 7 5 5 7 8 10 9 8 8 8 6 6 6 7 7 7 7 7 8 12 14 16 17 18 18 18 19 19 21 22 24 24 25 22 16 17 20 17 15 13 12 13 14 14
3 5 5 7 6 6 5 6 7 7 10 9 8 8 7 7 6 6 6 6 6 6 6 7 10 13 15 16 15 14 14 17 18 20 22 23 24 25 22 17 19 19 13 11 12 14 13 12 13
4 3 5 5 3 4 6 8 8 6 8 9 8 7 7 6 6 6 5 5 6 8 8 8 8 9 11 8 9 10 10 9 14 19 21 22 24 24 21 18 17 17 10 12 13 13 13 12 12
2 4 4 1 1 3 3 5 5 5 7 8 9 8 7 6 6 5 5 6 7 6 6 6 7 7 9 8 8 7 6 7 13 15 17 21 23 22 20 19 16 16 11 12 12 13 10 11 11
5 3 3 4 2 3 4 2 4 2 4 6 6 6 6 7 7 4 5 5 4 4 5 8 7 7 10 12 10 10 5 5 6 6 10 19 22 21 20 20 18 17 11 11 12 11 12 12 11
1 2 3 4 4 3 5 3 6 6 4 4 5 6 6 6 6 4 4 3 2 3 5 6 7 7 10 12 9 10 11 8 9 9 8 17 20 20 20 20 18 17 13 10 11 11 11 10 11
3 2 3 3 3 1 2 3 3 5 6 5 5 6 6 6 6 4 2 2 3 4 6 6 7 7 9 11 8 9 8 7 8 9 9 9 14 18 20 19 18 17 14 12 11 12 11 9 10
2 4 4 5 4 3 4 6 4 5 6 6 6 6 6 5 4 3 2 4 5 6 6 7 7 7 8 9 8 9 10 11 12 13 11 10 8 12 18 19 18 17 15 13 12 10 12 11 11
7 6 6 6 4 5 0 4 4 3 4 8 9 7 6 4 3 4 5 6 6 7 7 7 8 8 8 8 9 9 9 10 11 12 11 12 11 10 9 18 16 16 16 16 15 11 11 11 11
4 4 4 3 5 6 4 3 4 4 4 7 8 8 6 4 4 5 5 5 6 7 8 8 9 8 9 9 10 8 8 8 9 11 11 11 10 9 14 18 18 18 18 17 15 9 11 10 11
2 2 4 4 2 5 6 4 3 3 4 6 7 6 5 4 4 5 5 5 6 7 7 8 9 9 10 10 10 9 9 9 11 10 10 9 11 16 18 19 17 17 17 15 12 10 12 12 10
2 5 5 2 2 6 7 5 5 9 8 6 6 6 5 3 3 4 4 5 6 6 7 7 8 9 9 10 10 13 9 11 12 11 12 11 14 17 16 15 14 14 14 14 10 11 11 12 11
2 0 3 3 4 3 6 7 4 9 9 8 7 7 5 3 2 3 4 5 5 6 7 7 8 9 10 10 10 11 10 12 13 10 11 13 13 16 14 14 13 13 13 11 12 12 13 13 13
2 2 4 1 3 3 3 7 2 7 8 9 9 7 5 4 2 1 3 5 6 7 8 8 9 9 10 10 10 11 11 11 12 13 13 15 13 16 16 14 13 14 14 13 13 14 14 13 14
Wind_Direction
329 340 54 54 59 59 52 5 22 106 75 57 61 78 84 66 80 100 317 357 14 14 11 14 19 21 22 23 23 23 22 22 22 20 17 16 14 13 12 10 6 1 355 349 342 332 323 317 313
333 16 49 52 68 67 46 3 55 70 134 130 71 65 67 64 61 77 8 16 28 23 16 15 19 19 20 21 21 21 21 20 20 19 17 15 14 13 11 10 7 3 359 354 347 339 329 319 311
9 55 61 59 62 72 72 4 82 72 72 83 78 53 57 51 36 49 15 36 35 27 19 16 20 19 19 20 19 19 19 18 18 17 16 14 12 11 9 8 5 2 0 357 352 345 337 327 316
75 53 63 68 76 34 25 329 282 93 64 45 94 63 57 28 52 67 45 43 36 27 21 18 20 19 18 18 18 17 17 16 15 14 13 12 10 9 8 6 3 0 359 356 353 350 346 338 326
65 72 72 69 77 66 24 12 40 57 65 40 74 87 69 19 63 60 52 45 37 28 25 21 21 19 17 17 17 15 15 14 13 12 11 10 8 6 5 4 0 359 357 355 354 353 349 345 337
62 70 82 96 118 134 50 27 50 54 78 78 88 101 67 20 55 54 53 47 40 31 26 24 21 18 16 15 15 14 14 12 11 10 9 9 7 4 3 1 358 356 355 354 353 351 349 346 342
88 77 94 119 127 109 101 64 42 49 52 31 89 94 88 35 54 58 53 45 39 33 28 24 21 17 14 13 13 12 12 11 10 9 8 8 6 3 2 359 355 354 353 352 351 350 348 346 343
97 93 89 111 124 117 80 70 59 52 54 28 64 99 95 58 60 58 50 40 35 32 27 23 21 17 11 8 10 10 10 9 10 9 8 8 6 4 2 357 354 353 352 351 349 348 346 345 343
69 75 84 117 141 139 140 108 67 47 73 63 63 83 105 92 63 53 43 35 31 27 24 22 20 16 11 8 7 7 7 7 8 7 8 8 6 3 2 355 354 352 351 351 348 347 345 344 341
57 90 74 359 139 131 119 109 119 88 76 80 80 77 78 67 59 53 43 34 28 22 19 22 21 15 11 8 4 5 4 2 3 5 9 7 5 2 -0 355 353 351 350 350 347 345 346 344 338
63 104 106 71 98 107 103 87 95 122 94 121 118 103 80 72 67 64 55 46 35 24 21 22 23 16 11 7 3 5 1 0 0 3 8 7 3 360 357 354 351 349 349 348 344 343 343 340 336
81 63 95 113 94 85 97 103 86 102 135 138 128 121 101 88 80 76 67 53 41 34 24 20 25 17 11 9 2 5 2 359 360 360 6 6 2 358 354 351 348 348 348 343 341 338 336 337 334
81 89 61 85 80 84 93 96 106 118 137 132 120 112 112 107 97 88 83 67 52 39 23 15 27 18 12 11 5 4 1 358 356 360 5 6 2 356 351 347 346 346 345 341 337 335 335 334 332
104 101 104 97 96 99 112 116 112 156 148 127 120 118 120 115 109 90 74 64 56 42 24 15 26 17 13 11 5 2 359 357 356 359 1 2 359 354 349 344 344 345 343 338 334 329 332 330 329
97 94 99 141 123 137 119 90 152 164 144 132 130 128 119 112 105 98 92 80 65 48 31 20 20 15 12 10 5 1 357 356 357 358 359 358 357 354 349 343 345 346 342 338 335 330 333 329 328
97 106 141 199 161 167 126 157 198 165 143 144 141 133 123 114 109 106 97 87 69 51 37 24 19 13 9 5 1 358 356 356 357 358 357 356 356 354 349 344 347 347 344 341 335 334 334 330 327
139 167 198 201 196 173 160 178 204 166 147 150 151 145 136 126 110 100 92 87 70 53 38 23 16 11 5 0 357 353 354 355 356 356 356 355 354 353 348 345 348 348 345 341 337 338 333 330 328
217 216 193 207 200 166 160 172 179 159 142 144 144 141 140 130 123 110 90 81 67 48 37 23 11 7 2 358 355 353 354 354 355 354 355 355 353 351 347 351 348 349 345 341 339 336 332 330 327
217 180 181 208 179 157 171 164 176 153 131 136 142 139 133 130 117 101 84 72 54 35 24 15 4 358 360 356 356 352 350 346 349 351 352 353 352 349 348 352 347 349 343 338 338 335 332 334 333
113 120 145 186 137 126 137 171 171 159 154 154 150 145 132 118 107 92 67 49 43 27 5 7 1 355 356 351 344 341 330 327 338 338 346 350 349 348 351 349 346 345 340 337 337 334 334 331 337
47 113 172 192 146 90 114 146 174 172 134 128 122 126 123 116 114 97 61 48 33 11 359 13 360 351 350 348 347 345 333 323 337 337 344 345 345 345 346 343 343 341 338 334 332 332 335 329 329
314 187 167 154 150 238 172 263 204 186 166 144 118 113 108 105 111 100 74 50 24 358 3 7 355 347 347 350 351 351 351 344 336 335 331 334 338 340 342 340 341 338 334 329 329 336 325 324 325
268 269 221 174 174 248 209 217 272 159 189 188 151 135 117 117 116 103 89 63 32 13 8 357 348 343 345 348 346 342 339 329 327 329 328 328 332 336 337 338 339 335 331 326 323 324 323 322 317
329 33 60 56 78 298 223 183 248 205 207 170 155 142 130 126 114 96 55 39 21 8 359 350 347 343 342 344 340 337 336 333 335 336 334 334 330 330 331 335 334 330 327 325 322 321 320 317 315
40 51 18 356 357 270 231 173 247 224 176 157 157 153 145 127 100 57 35 22 8 359 351 346 348 344 343 342 340 335 335 332 331 332 333 333 333 331 323 331 327 325 323 323 323 319 319 314 314
358 102 121 270 272 292 341 258 246 222 160 130 134 141 132 103 72 52 35 18 0 353 348 347 349 345 343 344 339 333 336 335 332 329 329 328 327 322 322 325 322 320 321 323 320 316 314 315 311
62 95 154 154 293 287 283 278 279 221 173 137 133 129 117 93 66 47 26 13 360 351 348 346 347 345 344 343 338 339 338 332 329 325 323 323 323 326 326 323 320 318 318 317 316 313 312 310 305
115 140 88 115 299 295 293 272 234 204 205 174 155 145 130 100 65 39 15 1 351 346 342 345 346 343 338 339 340 346 331 328 326 324 323 321 321 323 322 322 321 318 316 315 313 312 308 308 306
4 124 117 129 172 213 288 279 224 189 179 171 167 155 144 123 83 25 356 346 343 343 344 346 345 343 340 338 334 332 328 327 325 322 321 320 319 322 322 321 320 318 316 314 313 311 308 307 308
245 181 148 179 265 208 237 278 77 147 150 149 149 146 145 131 102 11 344 344 348 348 346 346 343 341 337 335 334 331 328 326 326 324 322 322 321 322 322 321 319 319 318 314 310 308 309 304 305
Height
1544 1543 1544 1545 1552 1571 1591 1595 1589 1592 1597 1601 1599 1601 1606 1610 1616 1627 1626 1620 1616 1611 1607 1603 1599 1595 1592 1589 1586 1583 1580 1577 1574 1572 1569 1567 1565 1563 1560 1558 1556 1554 1552 1550 1548 1547 1545 1544 1542
1545 1544 1546 1549 1568 1592 1602 1600 1593 1592 1597 1600 1601 1605 1607 1613 1618 1622 1622 1619 1615 1611 1607 1603 1600 1596 1593 1589 1586 1583 1580 1577 1574 1571 1568 1566 1563 1561 1559 1556 1554 1552 1550 1548 1546 1544 1542 1541 1540
1546 1546 1550 1563 1589 1602 1603 1601 1597 1597 1598 1599 1603 1608 1612 1618 1622 1623 1622 1619 1615 1611 1608 1604 1600 1597 1593 1590 1586 1583 1580 1576 1573 1570 1567 1565 1562 1559 1556 1554 1552 1549 1547 1545 1543 1541 1539 1538 1536
1547 1550 1561 1581 1600 1606 1606 1603 1598 1596 1598 1601 1604 1612 1620 1623 1624 1624 1622 1619 1615 1612 1608 1604 1601 1597 1594 1590 1586 1583 1579 1576 1572 1569 1566 1563 1560 1557 1554 1552 1549 1546 1544 1542 1539 1537 1535 1534 1532
1549 1555 1575 1597 1605 1608 1606 1602 1597 1598 1602 1606 1606 1617 1624 1627 1625 1623 1621 1618 1615 1612 1608 1605 1601 1597 1593 1590 1586 1582 1578 1575 1571 1567 1564 1560 1557 1555 1551 1549 1546 1543 1541 1538 1536 1533 1531 1530 1528
1552 1561 1587 1604 1607 1607 1607 1606 1603 1604 1607 1610 1612 1617 1627 1628 1624 1623 1621 1618 1615 1612 1608 1605 1601 1597 1593 1589 1585 1581 1577 1573 1569 1565 1561 1557 1554 1551 1548 1545 1542 1539 1537 1534 1531 1529 1527 1525 1524
1556 1571 1592 1602 1605 1607 1608 1607 1608 1609 1609 1611 1613 1618 1626 1626 1625 1623 1621 1618 1615 1611 1608 1604 1600 1596 1592 1588 1583 1579 1574 1570 1566 1561 1557 1554 1550 1547 1543 1540 1538 1534 1532 1529 1527 1524 1523 1521 1519
1559 1573 1591 1598 1603 1607 1608 1609 1611 1611 1612 1614 1615 1619 1625 1627 1625 1622 1620 1618 1614 1610 1606 1603 1599 1595 1590 1586 1581 1577 1572 1568 1563 1558 1554 1550 1546 1542 1539 1536 1533 1529 1526 1523 1521 1519 1517 1515 1514
1563 1581 1597 1597 1601 1606 1607 1610 1613 1616 1614 1615 1618 1620 1624 1625 1623 1621 1619 1616 1613 1609 1605 1602 1597 1593 1588 1584 1579 1575 1570 1565 1560 1555 1551 1546 1542 1538 1534 1532 1528 1524 1521 1517 1515 1512 1511 1509 1508
1568 1591 1597 1596 1597 1602 1606 1609 1613 1618 1617 1620 1621 1623 1624 1623 1622 1620 1618 1615 1612 1608 1605 1600 1596 1591 1586 1582 1577 1572 1568 1563 1558 1553 1548 1544 1540 1536 1531 1527 1524 1520 1516 1512 1510 1507 1505 1502 1501
1579 1592 1596 1598 1598 1602 1606 1610 1613 1616 1620 1621 1621 1623 1624 1623 1622 1621 1619 1616 1613 1610 1605 1600 1596 1591 1585 1580 1575 1570 1565 1561 1556 1551 1546 1541 1537 1533 1528 1523 1519 1515 1511 1507 1504 1501 1499 1496 1495
1586 1594 1596 1601 1601 1604 1607 1610 1614 1616 1619 1621 1622 1623 1623 1623 1622 1621 1619 1617 1614 1610 1605 1600 1595 1589 1583 1578 1573 1568 1563 1558 1553 1549 1544 1538 1534 1529 1525 1521 1516 1511 1507 1503 1500 1496 1493 1491 1489
1591 1598 1600 1602 1603 1605 1608 1611 1613 1618 1620 1621 1622 1622 1623 1622 1622 1621 1619 1617 1614 1609 1605 1599 1593 1588 1582 1577 1571 1566 1561 1556 1552 1547 1542 1537 1532 1527 1522 1518 1513 1509 1504 1500 1495 1492 1488 1485 1482
1594 1598 1603 1605 1606 1609 1611 1614 1615 1620 1620 1621 1622 1622 1622 1622 1622 1620 1618 1615 1612 1608 1603 1598 1593 1587 1582 1576 1570 1565 1560 1555 1550 1545 1540 1535 1530 1525 1520 1515 1511 1506 1501 1497 1493 1488 1484 1480 1477
1597 1602 1606 1607 1608 1611 1612 1616 1616 1618 1619 1621 1622 1622 1622 1622 1621 1619 1617 1614 1611 1607 1603 1598 1592 1587 1581 1575 1570 1564 1559 1554 1549 1544 1539 1534 1529 1524 1518 1513 1509 1504 1499 1494 1489 1485 1480 1476 1472
1599 1605 1608 1607 1607 1610 1613 1618 1616 1617 1619 1620 1622 1622 1622 1621 1620 1618 1616 1614 1610 1607 1602 1597 1591 1585 1580 1574 1569 1563 1558 1553 1547 1542 1537 1532 1526 1521 1516 1512 1507 1502 1497 1492 1486 1482 1476 1472 1467
1600 1604 1604 1606 1605 1607 1611 1615 1615 1617 1618 1620 1621 1622 1621 1621 1619 1618 1615 1613 1609 1606 1601 1596 1590 1584 1578 1573 1567 1562 1557 1551 1546 1540 1535 1529 1524 1519 1514 1510 1504 1499 1494 1489 1485 1480 1475 1469 1463
1596 1598 1602 1604 1602 1605 1609 1613 1614 1616 1617 1619 1620 1621 1621 1620 1619 1617 1614 1612 1608 1605 1600 1594 1588 1582 1576 1570 1565 1560 1555 1549 1544 1538 1533 1527 1522 1517 1512 1507 1502 1497 1491 1486 1482 1477 1473 1468 1463
1589 1592 1599 1600 1599 1603 1608 1612 1614 1615 1617 1618 1619 1620 1619 1619 1618 1616 1614 1611 1608 1604 1598 1592 1586 1580 1573 1567 1561 1555 1550 1546 1541 1536 1531 1525 1520 1514 1509 1504 1499 1494 1489 1484 1480 1475 1470 1465 1461
1586 1593 1599 1600 1598 1603 1609 1613 1614 1615 1616 1617 1618 1618 1618 1618 1617 1615 1613 1610 1606 1602 1596 1590 1584 1578 1572 1566 1561 1555 1550 1545 1539 1534 1529 1523 1517 1512 1507 1501 1496 1491 1485 1481 1476 1472 1467 1463 1460
1591 1592 1596 1599 1601 1603 1609 1615 1616 1616 1617 1618 1618 1618 1618 1617 1616 1614 1611 1608 1604 1599 1593 1588 1582 1577 1571 1565 1559 1553 1547 1541 1535 1529 1525 1520 1515 1509 1504 1499 1493 1488 1483 1478 1473 1470 1466 1461 1458
1592 1591 1592 1596 1603 1607 1607 1614 1616 1616 1616 1617 1617 1617 1617 1616 1615 1612 1610 1606 1602 1597 1592 1587 1581 1575 1569 1563 1557 1550 1544 1538 1532 1527 1522 1517 1512 1506 1501 1496 1490 1485 1480 1475 1471 1468 1464 1460 1456
1592 1590 1591 1593 1598 1604 1606 1611 1613 1616 1616 1617 1617 1617 1616 1615 1613 1611 1608 1604 1600 1596 1591 1585 1580 1574 1568 1562 1556 1549 1543 1537 1531 1525 1519 1513 1508 1503 1498 1492 1487 1482 1477 1472 1468 1464 1461 1458 1455
1590 1592 1594 1599 1603 1606 1601 1611 1608 1615 1613 1614 1615 1616 1615 1614 1612 1609 1607 1603 1599 1594 1589 1583 1578 1572 1566 1560 1554 1548 1541 1535 1528 1521 1515 1509 1504 1499 1494 1489 1484 1479 1474 1469 1464 1461 1457 1454 1451
1593 1600 1607 1604 1609 1605 1598 1605 1609 1611 1609 1610 1613 1614 1613 1612 1610 1608 1605 1601 1597 1592 1587 1581 1575 1570 1564 1558 1552 1546 1539 1533 1526 1519 1513 1506 1500 1495 1490 1485 1480 1475 1470 1465 1461 1457 1453 1450 1447
1596 1599 1611 1613 1615 1608 1600 1603 1613 1610 1610 1610 1611 1612 1612 1610 1609 1606 1603 1599 1595 1590 1585 1579 1573 1568 1562 1555 1549 1543 1537 1530 1524 1518 1511 1505 1498 1492 1487 1482 1476 1471 1467 1462 1457 1453 1449 1446 1443
1597 1603 1603 1613 1613 1614 1606 1607 1611 1609 1610 1611 1611 1611 1610 1609 1608 1605 1602 1598 1593 1588 1583 1578 1572 1566 1560 1553 1547 1541 1534 1528 1521 1515 1509 1502 1496 1490 1484 1478 1473 1467 1463 1458 1453 1449 1445 1442 1439
1597 1600 1609 1610 1613 1614 1606 1603 1607 1608 1608 1609 1609 1609 1609 1608 1606 1604 1600 1596 1592 1587 1582 1576 1570 1564 1558 1552 1545 1539 1532 1526 1519 1512 1506 1499 1493 1487 1480 1474 1469 1463 1458 1454 1449 1445 1441 1438 1434
1599 1600 1604 1612 1615 1617 1614 1602 1598 1599 1602 1605 1607 1607 1607 1607 1605 1602 1598 1594 1590 1585 1580 1574 1568 1562 1556 1549 1543 1536 1529 1523 1516 1510 1503 1497 1490 1484 1478 1471 1465 1460 1454 1449 1445 1440 1437 1433 1430
1599 1599 1603 1610 1610 1616 1620 1607 1598 1598 1600 1602 1605 1606 1606 1605 1603 1600 1597 1593 1588 1583 1578 1573 1567 1560 1554 1547 1541 1534 1527 1520 1514 1507 1501 1495 1488 1482 1475 1469 1463 1457 1451 1445 1440 1436 1433 1429 1426